| time (UTC) | temp F | wind direction | speed knots | gust knots | rain 1hr in | rain 24hr in | rain mn in | humidity % | barometer mb |
| 20260505040001 | 58 | 123 | 1.7 | 3.5 | 0.00 | 0.07 | 0.00 | 91 | 1011.3 |
| 20260505035401 | 58 | 132 | 1.7 | 3.5 | 0.00 | 0.07 | 0.00 | 90 | 1011.6 |
| 20260505034501 | 58 | 133 | 1.7 | 5.2 | 0.00 | 0.07 | 0.00 | 90 | 1011.3 |
| 20260505033601 | 58 | 146 | 1.7 | 3.5 | 0.00 | 0.07 | 0.00 | 90 | 1011.4 |
| 20260505032722 | 58 | 139 | 1.7 | 3.5 | 0.00 | 0.07 | 0.00 | 91 | 1011.4 |
| 20260505031801 | 58 | 132 | 1.7 | 3.5 | 0.00 | 0.07 | 0.00 | 91 | 1011.3 |
| 20260505030901 | 58 | 95 | 1.7 | 2.6 | 0.00 | 0.07 | 0.00 | 91 | 1011.4 |
| 20260505030001 | 58 | 115 | 0.9 | 2.6 | 0.00 | 0.07 | 0.00 | 91 | 1011.4 |
| 20260505025401 | 57 | 161 | 0.9 | 3.5 | 0.00 | 0.07 | 0.00 | 91 | 1011.5 |
| 20260505024501 | 57 | 138 | 1.7 | 3.5 | 0.00 | 0.07 | 0.00 | 91 | 1011.5 |
| 20260505023601 | 57 | 128 | 1.7 | 3.5 | 0.00 | 0.07 | 0.00 | 90 | 1011.4 |
| 20260505022701 | 57 | 93 | 1.7 | 2.6 | 0.00 | 0.07 | 0.00 | 89 | 1011.4 |
| 20260505021801 | 57 | 121 | 1.7 | 3.5 | 0.00 | 0.07 | 0.00 | 88 | 1011.3 |
| 20260505020901 | 57 | 136 | 1.7 | 3.5 | 0.00 | 0.07 | 0.00 | 88 | 1011.4 |
| 20260505020022 | 57 | 147 | 1.7 | 3.5 | 0.00 | 0.07 | 0.00 | 88 | 1011.4 |
| 20260505015422 | 57 | 135 | 1.7 | 3.5 | 0.00 | 0.07 | 0.00 | 87 | 1011.3 |
| 20260505014522 | 58 | 146 | 0.9 | 4.3 | 0.00 | 0.07 | 0.00 | 87 | 1011.3 |
| 20260505013601 | 58 | 348 | 1.7 | 4.3 | 0.00 | 0.07 | 0.00 | 86 | 1011.3 |
| 20260505012701 | 58 | 220 | 1.7 | 3.5 | 0.00 | 0.07 | 0.00 | 86 | 1011.3 |
| 20260505011801 | 58 | 131 | 0.9 | 3.5 | 0.00 | 0.07 | 0.00 | 86 | 1011.4 |
| 20260505010901 | 59 | 153 | 0.9 | 5.2 | 0.00 | 0.07 | 0.00 | 86 | 1011.4 |
| 20260505010022 | 59 | 163 | 1.7 | 5.2 | 0.00 | 0.07 | 0.00 | 85 | 1011.1 |
| 20260505005423 | 59 | 264 | 1.7 | 3.5 | 0.00 | 0.07 | 0.00 | 85 | 1011.5 |
| 20260505004501 | 60 | 315 | 1.7 | 3.5 | 0.00 | 0.07 | 0.00 | 85 | 1011.5 |
| 20260505003601 | 60 | 93 | 0.9 | 5.2 | 0.00 | 0.07 | 0.00 | 84 | 1011.6 |
| 20260505002701 | 60 | 317 | 2.6 | 5.2 | 0.00 | 0.07 | 0.00 | 84 | 1011.5 |
| 20260505001801 | 61 | 22 | 2.6 | 4.3 | 0.00 | 0.07 | 0.00 | 83 | 1011.5 |
| 20260505000922 | 61 | 98 | 1.7 | 5.2 | 0.00 | 0.07 | 0.00 | 80 | 1011.4 |
| 20260505000022 | 61 | 80 | 2.6 | 6.1 | 0.00 | 0.07 | 0.00 | 81 | 1011.4 |
| 20260504235401 | 61 | 86 | 2.6 | 7.8 | 0.00 | 0.07 | 0.00 | 80 | 1011.3 |
| 20260504234501 | 61 | 48 | 4.3 | 9.6 | 0.00 | 0.07 | 0.00 | 80 | 1011.3 |
| 20260504233601 | 60 | 73 | 2.6 | 7.8 | 0.00 | 0.07 | 0.00 | 82 | 1011.0 |
| 20260504232701 | 60 | 92 | 3.5 | 7.0 | 0.00 | 0.07 | 0.00 | 85 | 1011.0 |
| 20260504231801 | 60 | 96 | 3.5 | 6.1 | 0.00 | 0.07 | 0.00 | 86 | 1010.9 |
| 20260504230901 | 60 | 112 | 3.5 | 7.0 | 0.00 | 0.07 | 0.00 | 86 | 1010.7 |
| 20260504230022 | 60 | 91 | 3.5 | 7.0 | 0.00 | 0.07 | 0.00 | 87 | 1010.9 |
| 20260504225401 | 60 | 93 | 4.3 | 7.8 | 0.00 | 0.07 | 0.00 | 87 | 1010.8 |
| 20260504224522 | 61 | 88 | 2.6 | 6.1 | 0.00 | 0.07 | 0.00 | 90 | 1010.6 |
| 20260504223601 | 61 | 69 | 2.6 | 5.2 | 0.00 | 0.07 | 0.00 | 91 | 1010.6 |
| 20260504222701 | 61 | 95 | 2.6 | 5.2 | 0.00 | 0.07 | 0.00 | 91 | 1010.8 |
| 20260504221801 | 61 | 88 | 1.7 | 5.2 | 0.00 | 0.07 | 0.00 | 91 | 1011.0 |
| 20260504220901 | 61 | 91 | 2.6 | 3.5 | 0.00 | 0.07 | 0.00 | 91 | 1011.3 |
| 20260504220023 | 61 | 97 | 1.7 | 4.3 | 0.00 | 0.07 | 0.00 | 91 | 1011.2 |
| 20260504215401 | 61 | 89 | 1.7 | 4.3 | 0.00 | 0.07 | 0.07 | 90 | 1011.3 |
| 20260504214501 | 61 | 83 | 1.7 | 5.2 | 0.00 | 0.07 | 0.07 | 90 | 1011.4 |
| 20260504213622 | 61 | 87 | 1.7 | 4.3 | 0.00 | 0.07 | 0.07 | 91 | 1011.4 |
| 20260504212701 | 61 | 89 | 2.6 | 3.5 | 0.00 | 0.07 | 0.07 | 91 | 1011.7 |
| 20260504211801 | 61 | 102 | 1.7 | 3.5 | 0.00 | 0.07 | 0.07 | 91 | 1011.7 |
| 20260504210922 | 62 | 96 | 1.7 | 3.5 | 0.00 | 0.07 | 0.07 | 91 | 1011.6 |
| 20260504210001 | 62 | 63 | 1.7 | 2.6 | 0.00 | 0.07 | 0.07 | 91 | 1011.4 |
| 20260504205401 | 62 | 57 | 0.9 | 1.7 | 0.00 | 0.07 | 0.07 | 91 | 1011.5 |
| 20260504204522 | 62 | 72 | 0.9 | 2.6 | 0.00 | 0.07 | 0.07 | 91 | 1011.4 |
| 20260504203601 | 62 | 113 | 0.9 | 3.5 | 0.00 | 0.07 | 0.07 | 90 | 1011.5 |
| 20260504202701 | 62 | 138 | 0.9 | 3.5 | 0.00 | 0.07 | 0.07 | 90 | 1011.1 |
| 20260504201801 | 62 | 310 | 0.9 | 2.6 | 0.00 | 0.07 | 0.07 | 91 | 1011.1 |
| 20260504200901 | 62 | 97 | 0.9 | 3.5 | 0.00 | 0.07 | 0.07 | 91 | 1011.1 |
| 20260504200001 | 62 | 122 | 1.7 | 5.2 | 0.00 | 0.07 | 0.07 | 91 | 1010.7 |
| 20260504195401 | 62 | 160 | 2.6 | 5.2 | 0.00 | 0.07 | 0.07 | 90 | 1010.6 |
| 20260504194501 | 62 | 152 | 1.7 | 5.2 | 0.00 | 0.07 | 0.07 | 91 | 1010.7 |
| 20260504193601 | 62 | 130 | 1.7 | 3.5 | 0.00 | 0.07 | 0.07 | 91 | 1010.4 |
| 20260504192701 | 62 | 144 | 0.9 | 3.5 | 0.01 | 0.07 | 0.07 | 91 | 1010.2 |
| 20260504191801 | 62 | 153 | 1.7 | 3.5 | 0.02 | 0.07 | 0.07 | 91 | 1010.1 |
| 20260504190902 | 62 | 140 | 1.7 | 4.3 | 0.02 | 0.07 | 0.07 | 90 | 1009.7 |
| 20260504190023 | 62 | 148 | 1.7 | 3.5 | 0.03 | 0.07 | 0.07 | 90 | 1010.0 |
| 20260504185401 | 63 | 159 | 1.7 | 4.3 | 0.03 | 0.07 | 0.07 | 90 | 1009.7 |
| 20260504184501 | 63 | 170 | 0.9 | 3.5 | 0.04 | 0.07 | 0.07 | 89 | 1009.9 |
| 20260504183602 | 63 | 142 | 0.9 | 4.3 | 0.04 | 0.06 | 0.06 | 89 | 1009.9 |
| 20260504182702 | 63 | 130 | 2.6 | 5.2 | 0.04 | 0.06 | 0.06 | 89 | 1009.8 |
| 20260504181802 | 63 | 121 | 0.9 | 4.3 | 0.04 | 0.05 | 0.05 | 88 | 1009.7 |
| 20260504180901 | 64 | 164 | 0.9 | 4.3 | 0.04 | 0.05 | 0.05 | 87 | 1009.7 |
| 20260504180002 | 64 | 162 | 1.7 | 6.1 | 0.03 | 0.04 | 0.04 | 87 | 1009.7 |
| 20260504175402 | 64 | 165 | 2.6 | 6.1 | 0.03 | 0.04 | 0.04 | 87 | 1010.0 |
| 20260504174523 | 64 | 149 | 2.6 | 7.8 | 0.02 | 0.03 | 0.03 | 86 | 1010.0 |
| 20260504173602 | 64 | 158 | 2.6 | 6.1 | 0.01 | 0.02 | 0.02 | 85 | 1010.1 |
| 20260504172701 | 65 | 160 | 2.6 | 5.2 | 0.01 | 0.02 | 0.02 | 85 | 1009.9 |
| 20260504171802 | 65 | 149 | 2.6 | 7.8 | 0.01 | 0.02 | 0.02 | 83 | 1010.0 |
| 20260504170902 | 66 | 163 | 4.3 | 7.8 | 0.00 | 0.01 | 0.01 | 78 | 1010.1 |
| 20260504150902 | 67 | 151 | 3.5 | 13.0 | 0.00 | 0.00 | 0.00 | 76 | 1010.5 |
| 20260504140923 | 70 | 167 | 6.1 | 14.8 | 0.00 | 0.00 | 0.00 | 69 | 1010.3 |
| 20260504081802 | 69 | 161 | 2.6 | 7.8 | 0.00 | 0.00 | 0.00 | 62 | 1011.7 |
| 20260504080923 | 68 | 183 | 2.6 | 7.0 | 0.00 | 0.00 | 0.00 | 63 | 1011.8 |
| 20260504050003 | 59 | 132 | 2.6 | 5.2 | 0.00 | 0.00 | 0.00 | 91 | 1012.2 |
| 20260504045403 | 59 | 150 | 1.7 | 4.3 | 0.00 | 0.00 | 0.00 | 91 | 1012.2 |
| 20260504044502 | 59 | 116 | 1.7 | 4.3 | 0.00 | 0.00 | 0.00 | 91 | 1011.9 |
| 20260504043623 | 59 | 79 | 1.7 | 4.3 | 0.00 | 0.00 | 0.00 | 91 | 1012.1 |
| 20260504042703 | 59 | 122 | 1.7 | 4.3 | 0.00 | 0.00 | 0.00 | 91 | 1012.3 |
| 20260504041803 | 59 | 166 | 1.7 | 3.5 | 0.00 | 0.00 | 0.00 | 91 | 1012.3 |
| 20260504040903 | 59 | 137 | 1.7 | 4.3 | 0.00 | 0.00 | 0.00 | 90 | 1012.5 |